CW0565 Weather Reports


time (UTC)temp
F
wind
direction
speed
knots
gust
knots
rain 1hr
in
rain 24hr
in
rain mn
in
humidity
%
barometer
mb
20260905223009 55 326 1.7 7.0 0.00 0.01 0.00 71 1013.0
20260905221513 55 290 4.3 8.7 0.00 0.01 0.00 71 1012.6
20260905220009 55 309 5.2 11.3 0.00 0.01 0.01 71 1012.4
20260905214509 55 293 2.6 8.7 0.00 0.01 0.01 71 1012.3
20260905213010 55 286 2.6 6.1 0.00 0.01 0.01 71 1012.2
20260905211509 56 282 1.7 8.7 0.00 0.01 0.01 70 1012.0
20260905210010 56 308 6.1 11.3 0.00 0.01 0.01 71 1011.8
20260905204510 55 293 3.5 7.8 0.00 0.01 0.01 72 1011.4
20260905203010 56 279 3.5 7.0 0.00 0.01 0.01 72 1011.2
20260905201515 56 286 4.3 11.3 0.00 0.01 0.01 71 1011.1
20260905200010 56 283 0.0 9.6 0.00 0.02 0.01 71 1010.9
20260905194510 56 291 0.9 2.6 0.00 0.02 0.01 71 1010.7
20260905193009 56 295 0.9 7.0 0.00 0.02 0.01 71 1010.4
20260905191512 57 309 0.9 8.7 0.00 0.02 0.01 70 1010.3
20260905190030 57 256 1.7 13.9 0.00 0.08 0.01 70 1009.9
20260905184510 58 247 0.9 9.6 0.00 0.08 0.01 69 1009.7
20260905183014 58 184 1.7 4.3 0.00 0.08 0.01 68 1009.3
20260905181515 58 335 0.0 10.4 0.00 0.08 0.01 67 1008.9
20260905180017 59 270 6.1 13.0 0.00 0.10 0.01 66 1008.8
20260905174509 60 288 3.5 8.7 0.00 0.10 0.01 65 1008.3
20260905173009 60 276 4.3 13.0 0.00 0.10 0.01 65 1008.0
20260905171508 60 294 4.3 15.6 0.00 0.10 0.01 65 1007.5
20260905170009 61 275 6.1 16.5 0.00 0.13 0.01 65 1007.2
20260905164510 61 260 7.0 15.6 0.00 0.13 0.01 64 1007.0
20260905163011 61 271 8.7 17.4 0.00 0.13 0.01 63 1006.7
20260905161510 62 274 7.0 14.8 0.00 0.13 0.01 61 1006.6
20260905160011 62 311 8.7 21.7 0.00 0.18 0.01 56 1006.3
20260905154509 63 300 11.3 20.0 0.00 0.18 0.01 53 1006.1
20260905153012 63 355 13.9 23.5 0.00 0.18 0.01 53 1006.1
20260905151509 64 311 8.7 17.4 0.00 0.18 0.01 51 1005.6
20260905150010 62 275 11.3 23.5 0.00 0.18 0.01 52 1005.3
20260905144509 62 282 14.8 24.3 0.00 0.18 0.01 53 1005.0
20260905143019 63 322 9.6 20.9 0.00 0.18 0.01 49 1004.6
20260905141510 64 284 8.7 20.0 0.00 0.18 0.01 50 1004.4
20260905140012 64 282 3.5 18.2 0.00 0.18 0.01 51 1004.2
20260905134511 63 276 7.8 20.9 0.00 0.18 0.01 52 1003.8
20260905133010 63 77 10.4 17.4 0.00 0.18 0.01 52 1003.8
20260905131518 63 289 7.0 20.9 0.00 0.18 0.01 52 1003.2
20260905130017 63 306 14.8 24.3 0.00 0.18 0.01 52 1003.0
20260905124509 63 285 13.9 20.9 0.00 0.18 0.01 52 1002.9
20260905123009 63 280 13.9 23.5 0.00 0.18 0.01 52 1002.6
20260905121509 63 299 7.0 18.2 0.00 0.18 0.01 54 1002.4
20260905120009 62 283 4.3 14.8 0.00 0.18 0.01 56 1002.3
20260905114510 62 275 10.4 18.2 0.00 0.18 0.01 56 1002.1
20260905113013 62 271 10.4 21.7 0.00 0.18 0.01 56 1002.1
20260905111510 63 315 7.8 15.6 0.00 0.18 0.01 57 1002.0
20260905110009 62 269 7.0 17.4 0.00 0.18 0.01 58 1001.5
20260905104510 62 290 9.6 17.4 0.00 0.18 0.01 59 1001.4
20260905103015 61 315 7.8 20.0 0.00 0.18 0.01 61 1001.2
20260905101509 60 277 5.2 20.9 0.00 0.18 0.01 64 1001.2
20260905100015 60 319 6.1 17.4 0.00 0.18 0.01 62 1001.0
20260905094512 61 247 3.5 14.8 0.00 0.18 0.01 65 1000.8
20260905093009 60 250 4.3 13.9 0.00 0.18 0.01 66 1000.9
20260905091510 60 250 4.3 13.0 0.00 0.18 0.01 68 1000.6
20260905090010 59 220 2.6 13.0 0.00 0.18 0.01 70 1000.5
20260905084510 58 234 5.2 12.2 0.00 0.18 0.01 73 1000.4
20260905083010 58 303 2.6 8.7 0.00 0.18 0.01 74 1000.1
20260905081510 57 271 5.2 8.7 0.00 0.18 0.01 77 1000.0
20260905080011 57 245 5.2 7.8 0.00 0.18 0.01 79 1000.0
20260905074510 55 224 1.7 8.7 0.00 0.18 0.01 82 999.8
20260905073009 55 253 5.2 10.4 0.00 0.18 0.01 83 999.8
20260905071514 55 218 4.3 8.7 0.00 0.18 0.01 83 999.7
20260905070010 55 215 5.2 8.7 0.00 0.18 0.01 84 999.5
20260905064510 54 192 2.6 8.7 0.00 0.18 0.01 87 999.7
20260905063009 53 203 1.7 6.1 0.00 0.18 0.01 87 999.3
20260905061512 53 217 2.6 8.7 0.00 0.18 0.01 87 999.5
20260905060010 53 210 2.6 7.8 0.00 0.18 0.01 88 999.4
20260905054531 52 221 2.6 8.7 0.00 0.18 0.01 88 999.4
20260905053010 52 184 0.9 5.2 0.00 0.18 0.01 87 999.4
20260905051509 52 207 0.0 6.1 0.00 0.18 0.01 87 999.4
20260905050013 52 236 3.5 7.8 0.00 0.18 0.01 88 999.4
20260905044513 52 200 2.6 7.0 0.00 0.18 0.01 88 999.3
20260905043009 52 227 3.5 13.0 0.00 0.18 0.01 86 999.2
20260905041510 52 232 7.0 12.2 0.00 0.18 0.01 87 999.1
20260905040013 52 219 6.1 11.3 0.00 0.18 0.01 86 999.1
20260905034510 52 204 4.3 10.4 0.00 0.18 0.01 86 999.1
20260905033009 51 243 3.5 9.6 0.00 0.18 0.01 90 999.2
20260905031509 51 205 0.9 5.2 0.00 0.18 0.01 92 999.1
20260905030009 51 200 0.0 0.0 0.00 0.18 0.01 92 999.0
20260905024512 51 201 0.0 6.1 0.00 0.18 0.01 92 999.0
20260905023018 51 215 0.9 3.5 0.00 0.18 0.01 94 998.8
20260905021509 51 215 0.0 5.2 0.00 0.18 0.01 95 998.8
20260905020010 50 192 1.7 3.5 0.00 0.18 0.01 95 998.7
20260905014509 51 192 0.0 0.0 0.00 0.18 0.01 95 998.7
20260905013009 51 192 0.0 3.5 0.00 0.18 0.01 95 998.5
20260905011510 50 191 0.0 3.5 0.00 0.18 0.01 95 998.5
20260905010011 50 231 0.9 3.5 0.00 0.18 0.01 95 998.3
20260905004509 51 231 0.0 2.6 0.00 0.18 0.01 96 998.2
20260905003009 50 231 0.9 2.6 0.00 0.18 0.01 95 998.1
20260905001510 50 231 0.0 2.6 0.00 0.18 0.01 95 997.9
20260905000010 50 231 0.0 2.6 0.01 0.18 0.01 94 998.2
20260904234513 51 231 0.0 1.7 0.01 0.18 0.01 93 998.2
20260904233012 51 231 0.0 2.6 0.01 0.18 0.01 92 998.1
20260904231510 51 231 0.0 1.7 0.01 0.18 0.01 91 998.0
20260904230010 52 231 0.0 0.0 0.00 0.17 0.00 90 998.1
20260904224509 52 231 0.0 0.9 0.00 0.17 0.00 89 998.0